Location: Vancouver
(49.2500°N, 123.1330°W)
Time: 20:54:26
(UTC-07:00)

Iridium 21 - Visible Passes

Search period start: 19 August 2017 00:00
Search period end: 29 August 2017 00:00
Orbit: 776 x 779 km, 86.4° (Epoch: 19 August)

Date Brightness Start Highest point End Pass type
(mag) Time Alt. Az. Time Alt. Az. Time Alt. Az.
19 Aug 7.3 03:05:27 10° NNE 03:09:54 28° ENE 03:14:21 10° SE visible
19 Aug 5.9 04:45:53 10° NNW 04:50:50 45° W 04:55:32 11° SSW visible
20 Aug 8.0 02:32:39 10° NNE 02:36:02 17° ENE 02:39:23 10° ESE visible
20 Aug 5.4 04:12:10 10° N 04:17:24 77° W 04:21:31 17° S visible
21 Aug 5.9 03:38:39 10° N 03:43:51 64° E 03:47:33 19° SSE visible
21 Aug 7.0 05:20:23 10° NNW 05:24:03 20° WNW 05:27:44 10° WSW visible
22 Aug 6.8 03:05:19 10° N 03:10:11 37° ENE 03:13:37 18° SE visible
22 Aug 6.3 04:46:13 10° NNW 04:50:50 33° W 04:54:03 17° SW visible
23 Aug 7.5 02:32:15 10° NNE 02:36:22 23° ENE 02:39:42 13° ESE visible
23 Aug 5.7 04:12:22 10° NNW 04:17:28 55° W 04:20:08 27° SSW visible
24 Aug 8.1 01:59:45 10° NE 02:02:26 14° ENE 02:05:06 10° E visible
24 Aug 5.5 03:38:44 10° N 03:44:00 87° E 03:46:15 35° S visible
24 Aug 7.3 05:21:13 10° NW 05:23:57 14° WNW 05:26:41 10° WSW visible
25 Aug 6.2 03:05:17 10° N 03:10:24 51° E 03:12:24 33° SE visible
25 Aug 6.7 04:46:40 10° NNW 04:50:47 24° W 04:52:50 19° WSW visible
26 Aug 7.0 02:32:03 10° NNE 02:36:41 31° ENE 02:38:34 24° ESE visible
26 Aug 6.1 04:12:38 10° NNW 04:17:30 40° W 04:19:01 32° WSW visible
27 Aug 7.6 01:59:09 10° NNE 02:02:49 19° ENE 02:04:45 16° E visible
27 Aug 5.5 03:38:53 10° N 03:44:06 69° W 03:45:12 53° SSW visible
27 Aug 7.6 05:23:11 10° WNW 05:23:47 10° WNW 05:24:23 10° WNW visible
28 Aug 8.1 01:27:14 10° NE 01:28:49 11° ENE 01:30:25 10° E visible
28 Aug 5.6 03:05:20 10° N 03:10:34 71° E 03:11:24 59° SE visible
28 Aug 7.1 04:47:17 10° NW 04:50:42 18° WNW 04:51:51 17° W visible
